Location: Firdgum
(53.2488°N, 5.5615°E)
Time: 01:34:54
(UTC+00:00)

Cosmos 1703 Rocket - Pass Details

Date: 08 December 2019
Orbit: 604 x 635 km, 82.5° (Epoch: 22 January)

Event Time Altitude Azimuth Distance (km) Brightness Sun altitude
Exits shadow 05:22:13 38° 313° (NW) 968 4.1 -19.0°
Maximum altitude 05:23:28 50° 266° (W) 802 3.7 -18.9°
Drops below altitude 10° 05:27:45 10° 191° (S) 1,994 6.2 -18.2°
Sets 05:30:00 0° 186° (S) 2,891 7.1 -17.9°
